User: anonymous   Login
Location: Ida Center
(41.8662°N, 83.5713°W)
Time: 17:34:33
(UTC+00:00)
Language:

PSLV R/B - Orbit

View from above orbital plane
View from above orbital plane
View from above satellite
View from above satellite

Ground track
Ground track

The orbit data is extracted from the following two-line orbital elements,

1 32477U 08002B   20022.66690316  .04454008  78260-5  40691-3 0  9992
2 32477  41.0059 143.9118 0006903 351.1181   8.9550 16.37764623674402
Epoch (UTC): 22 January 2020 16:00:20
Eccentricity: 0.0006903
inclination: 41.0059°
perigee height: 167 km
apogee height: 176 km
right ascension of ascending node: 143.9118°
argument of perigee: 351.1181°
revolutions per day: 16.37764623
mean anomaly at epoch: 8.9550°
orbit number at epoch: 67440

The dashed part of the orbit path shows where the satellite is in the earth's shadow,  

DLR